sat.trackr.live / text

‹ back to catalog

STARLINK-33928

NORAD 64003 · 2025-101K

PAYLOAD ACTIVE UNKNOWN

§ Identity

Operator
Country
US
Launch date
2025-05-14
Launch site
AFETR
Launch vehicle
Mass (kg)
RCS (m²)

Purposes: comms

External: N2YO · Heavens-Above · Gunter

§ Orbital elements

Epoch: 2026-09-20T21:28:23.204064Z

Period
94.27 min
Inclination
43.0013°
Eccentricity
0.0001786
Mean motion
15.27582637 rev/d
Perigee alt
481.8 km
Apogee alt
484.3 km
Semi-major
6,861.2 km
B*
4.1866e-4
RAAN
335.1763°
Arg perigee
277.0493°
Mean anomaly
83.0156°
Rev number
7,691

§ Raw data

STARLINK-339281 64003U 25101K   26263.89471301  .00011277  00000+0  41866-3 0  99992 64003  43.0013 335.1763 0001786 277.0493  83.0156 15.27582637 76910

JSON: /api/v1/satellites/64003 · /tle

For live sub-satellite position, see the globe view (requires WebGL).

§ Visibility from observer

Set your observer location to see the next 7 days of passes ≥ 10°. The values pass through the URL so the page stays shareable.

No JS? Fill the form by hand. The geolocation button needs JavaScript.